Weather History for Estherville, IA

Change the Weather History Date:

Saturday, October 20, 2012

  Actual Average Record
Temperature  
Mean Temperature 49 °F 46 °F  
Max Temperature 57 °F 58 °F 82 °F (1953)
Min Temperature 40 °F 35 °F 15 °F (1960)
Degree Days  
Heating Degree Days 16 19  
Month to date heating degree days 355 302  
Since 1 July heating degree days 552 510  
Cooling Degree Days 0 0  
Month to date cooling degree days 0 4  
Year to date cooling degree days 886 591  
Moisture  
Dew Point 40 °F    
Average Humidity 79    
Maximum Humidity 96    
Minimum Humidity 61    
Precipitation  
Precipitation 0.00 in 0.06 in 2.86 in (2006)
Month to date precipitation 0.39 1.66  
Sea Level Pressure  
Sea Level Pressure 29.80 in    
Wind  
Wind Speed 8 mph (South)    
Max Wind Speed 16 mph    
Max Gust Speed 20 mph    
Visibility 9 miles    
Events      
T = Trace of Precipitation, MM = Missing Value Source: NWS Daily Summary

Daily Weather History Graph

Daily Weather History Graph

Search for Another Location

Airport:

Trip Planner

Search our weather history database for the weather conditions in past years. The results will help you decide how hot, cold, wet, or windy it might be!

Date:

Astronomy

Oct. 20, 2012 Rise Set
Actual Time 7:39 AM CDT 6:26 PM CDT
Civil Twilight 7:10 AM CDT 6:55 PM CDT
Nautical Twilight 6:37 AM CDT 7:29 PM CDT
Astronomical Twilight 6:04 AM CDT 8:02 PM CDT
Moon 1:21 PM CDT (10/20) 11:09 PM CDT (10/20)
Length of Visible Light 11h 45m
Length of Day
10h 47m
Waxing Crescent, 34% of the Moon is Illuminated
Oct 20
Waxing Crescent
Oct 21
First Quarter
Oct 29
Full
Nov 6
Last Quarter
Nov 13
New

Hourly Weather History & Observations

Time (CDT) Temp. Windchill Dew Point Humidity Pressure Visibility Wind Dir Wind Speed Gust Speed Precip Events Conditions
12:52 AM 41.0 °F - 39.0 °F 93% 29.78 in 10.0 mi Calm Calm - N/A   Overcast
1:52 AM 39.9 °F - 37.9 °F 93% 29.78 in 10.0 mi Calm Calm - N/A   Overcast
2:52 AM 41.0 °F 39.0 °F 39.0 °F 93% 29.79 in 10.0 mi NW 3.5 mph - N/A   Overcast
3:52 AM 41.0 °F 38.0 °F 39.0 °F 93% 29.79 in 10.0 mi WSW 4.6 mph - N/A   Overcast
4:52 AM 41.0 °F 39.0 °F 39.0 °F 93% 29.80 in 7.0 mi NNW 3.5 mph - N/A   Overcast
5:20 AM 41.0 °F - 39.2 °F 93% 29.77 in 7.0 mi Calm Calm - N/A   Overcast
5:52 AM 41.0 °F - 39.0 °F 93% 29.81 in 8.0 mi Calm Calm - N/A   Overcast
6:35 AM 41.0 °F 39.0 °F 39.2 °F 93% 29.78 in 7.0 mi SSW 3.5 mph - N/A   Overcast
6:52 AM 41.0 °F 39.0 °F 37.9 °F 89% 29.81 in 7.0 mi SSW 3.5 mph - N/A   Overcast
7:09 AM 41.0 °F 39.0 °F 39.2 °F 93% 29.78 in 7.0 mi SSW 3.5 mph - N/A   Overcast
7:34 AM 41.0 °F 39.0 °F 39.2 °F 93% 29.79 in 6.0 mi South 3.5 mph - N/A   Overcast
7:52 AM 41.0 °F 39.0 °F 39.0 °F 93% 29.82 in 6.0 mi South 3.5 mph - N/A   Overcast
8:52 AM 42.1 °F 39.2 °F 39.9 °F 92% 29.83 in 7.0 mi SSW 4.6 mph - N/A   Overcast
9:35 AM 42.8 °F 39.3 °F 39.2 °F 87% 29.80 in 10.0 mi South 5.8 mph - N/A   Overcast
9:52 AM 44.1 °F 40.8 °F 39.9 °F 85% 29.84 in 10.0 mi SSW 5.8 mph - N/A   Overcast
10:33 AM 44.6 °F 42.2 °F 39.2 °F 81% 29.81 in 10.0 mi SW 4.6 mph - N/A   Overcast
10:52 AM 46.0 °F 41.4 °F 41.0 °F 83% 29.85 in 10.0 mi SW 9.2 mph - N/A   Overcast
11:52 AM 46.9 °F - 41.0 °F 80% 29.83 in 10.0 mi SSW 10.4 mph - N/A   Overcast
12:52 PM 48.9 °F - 41.0 °F 74% 29.82 in 10.0 mi South 5.8 mph - N/A   Mostly Cloudy
1:37 PM 51.8 °F - 42.8 °F 71% 29.77 in 10.0 mi South 9.2 mph - N/A   Scattered Clouds
2:31 PM 53.6 °F - 42.8 °F 67% 29.77 in 10.0 mi South 11.5 mph - N/A   Scattered Clouds
2:52 PM 55.0 °F - 43.0 °F 64% 29.77 in 10.0 mi South 12.7 mph - N/A   Scattered Clouds
4:52 PM 55.9 °F - 43.0 °F 62% 29.75 in 10.0 mi SSE 11.5 mph - N/A   Clear
5:52 PM 53.1 °F - 44.1 °F 71% 29.76 in 10.0 mi SSE 10.4 mph - N/A   Clear
6:52 PM 48.9 °F - 43.0 °F 80% 29.78 in 10.0 mi SSE 10.4 mph - N/A   Clear
8:52 PM 45.0 °F 38.5 °F 42.1 °F 90% 29.79 in 10.0 mi SE 13.8 mph - N/A   Clear
9:52 PM 43.0 °F 38.2 °F 41.0 °F 93% 29.81 in 6.0 mi SSE 8.1 mph - N/A   Clear
10:52 PM 43.0 °F 36.4 °F 41.0 °F 93% 29.81 in 7.0 mi SSE 12.7 mph - N/A   Clear
11:52 PM 44.1 °F 37.4 °F 41.0 °F 89% 29.80 in 8.0 mi South 13.8 mph - N/A   Clear